Overview Statistics Trail Chart Weather Telemetry Raw packets
 

This is the latest recevied weather packets stored in our database for station/object KC2GYU. If no packets are shown the sender has not sent any weather packets the latest 10 day(s).

<< 16 17 18 19 20 21 22 >>
Time Temp. Humidity Pressure Rain* Wind** Luminosity Snow
1778006665 22.78° C 69% 1012.4 hPa 0 mm - 606 W/m² -
1778006362 22.78° C 70% 1012.5 hPa 0 mm - 579 W/m² -
1778006059 23.89° C 68% 1012.5 hPa 0 mm - 598 W/m² -
1778005755 23.33° C 70% 1012.2 hPa 0 mm - 642 W/m² -
1778005452 22.78° C 71% 1012.6 hPa 0 mm - 647 W/m² -
1778005148 23.33° C 69% 1012.2 hPa 0 mm - 657 W/m² -
1778004846 23.33° C 70% 1012.6 hPa 0 mm - 644 W/m² -
1778004543 23.33° C 70% 1012.8 hPa 0 mm - 387 W/m² -
1778004239 23.33° C 69% 1012.7 hPa 0 mm - 252 W/m² -
1778003936 22.78° C 71% 1012.7 hPa 0 mm - 92 W/m² -
1778003632 22.78° C 70% 1012.9 hPa 0 mm - 604 W/m² -
1778003329 23.33° C 69% 1012.8 hPa 0 mm - 637 W/m² -
1778003027 23.33° C 71% 1013 hPa 0 mm - 451 W/m² -
1778002722 22.78° C 69% 1013.1 hPa 0 mm - 616 W/m² -
1778002419 22.22° C 71% 1012.9 hPa 0 mm - 626 W/m² -
1778002116 22.22° C 72% 1013.1 hPa 0 mm - 256 W/m² -
1778001814 22.78° C 71% 1013.1 hPa 0 mm - 695 W/m² -
1778001513 22.78° C 70% 1013.1 hPa 0 mm - 702 W/m² -
1778001210 22.78° C 70% 1012.9 hPa 0 mm - 694 W/m² -
1778000907 22.78° C 70% 1012.8 hPa 0 mm - 697 W/m² -
1778000604 23.33° C 70% 1012.7 hPa 0 mm - 708 W/m² -
1778000299 22.78° C 71% 1012.8 hPa 0 mm - 386 W/m² -
1777999995 22.78° C 68% 1013 hPa 0 mm - 698 W/m² -
1777999690 22.78° C 69% 1013.2 hPa 0 mm - 533 W/m² -
1777999388 22.78° C 70% 1012.9 hPa 0 mm - 692 W/m² -

* Rain latest hour (hover to see other rain measurements)
** Current wind speed in m/s (hover to see current wind gust speed)